Time,TemperatureF,DewpointF,PressureIn,WindDirection,WindDirectionDegrees,WindSpeedMPH,WindSpeedGustMPH,Humidity,HourlyPrecipIn,Conditions,Clouds,dailyrainin,SoftwareType,DateUTC
2013-01-04 00:05:00,44.6,10.0,30.15,East,83,2.0,5.0,24,0.00,,,0.00,Wunderground v.1.15,2013-01-04 08:05:00,
2013-01-04 00:10:00,44.8,9.2,30.15,ESE,113,1.0,3.0,23,0.00,,,0.00,Wunderground v.1.15,2013-01-04 08:10:00,
2013-01-04 00:15:00,45.0,9.4,30.15,ESE,111,0.0,6.0,23,0.00,,,0.00,Wunderground v.1.15,2013-01-04 08:15:00,
2013-01-04 00:21:00,44.8,9.2,30.15,East,96,1.0,2.0,23,0.00,,,0.00,Wunderground v.1.15,2013-01-04 08:21:00,
2013-01-04 00:26:00,44.6,9.0,30.15,ESE,117,0.0,2.0,23,0.00,,,0.00,Wunderground v.1.15,2013-01-04 08:26:00,
2013-01-04 00:31:00,44.1,9.5,30.16,ESE,113,5.0,5.0,24,0.00,,,0.00,Wunderground v.1.15,2013-01-04 08:31:00,
2013-01-04 00:37:00,44.2,8.7,30.16,NNE,30,0.0,5.0,23,0.00,,,0.00,Wunderground v.1.15,2013-01-04 08:37:00,
2013-01-04 00:42:00,44.7,9.1,30.15,NE,38,0.0,2.0,23,0.00,,,0.00,Wunderground v.1.15,2013-01-04 08:42:00,
2013-01-04 00:47:00,44.8,9.2,30.15,ESE,103,1.0,2.0,23,0.00,,,0.00,Wunderground v.1.15,2013-01-04 08:47:00,
2013-01-04 00:53:00,45.0,8.4,30.15,East,79,6.0,6.0,22,0.00,,,0.00,Wunderground v.1.15,2013-01-04 08:53:00,
2013-01-04 00:58:00,45.0,8.4,30.15,ESE,110,1.0,6.0,22,0.00,,,0.00,Wunderground v.1.15,2013-01-04 08:58:00,
2013-01-04 01:03:00,45.1,8.5,30.15,East,86,0.0,5.0,22,0.00,,,0.00,Wunderground v.1.15,2013-01-04 09:03:00,
2013-01-04 01:08:00,45.1,8.5,30.15,ESE,123,4.0,7.0,22,0.00,,,0.00,Wunderground v.1.15,2013-01-04 09:08:00,
2013-01-04 01:14:00,45.0,8.4,30.15,ENE,63,0.0,7.0,22,0.00,,,0.00,Wunderground v.1.15,2013-01-04 09:14:00,
2013-01-04 01:19:00,44.6,9.0,30.15,East,92,0.0,7.0,23,0.00,,,0.00,Wunderground v.1.15,2013-01-04 09:19:00,
2013-01-04 01:24:00,44.4,8.9,30.15,NNE,22,0.0,3.0,23,0.00,,,0.00,Wunderground v.1.15,2013-01-04 09:24:00,
2013-01-04 01:30:00,44.2,8.7,30.15,East,91,0.0,1.0,23,0.00,,,0.00,Wunderground v.1.15,2013-01-04 09:30:00,
2013-01-04 01:35:00,44.0,8.5,30.16,ENE,72,0.0,6.0,23,0.00,,,0.00,Wunderground v.1.15,2013-01-04 09:35:00,
2013-01-04 01:40:00,43.9,9.4,30.16,ESE,119,2.0,2.0,24,0.00,,,0.00,Wunderground v.1.15,2013-01-04 09:40:00,
2013-01-04 01:46:00,43.7,9.2,30.16,ESE,121,0.0,3.0,24,0.00,,,0.00,Wunderground v.1.15,2013-01-04 09:46:00,
2013-01-04 01:51:00,43.6,9.1,30.16,ENE,78,0.0,3.0,24,0.00,,,0.00,Wunderground v.1.15,2013-01-04 09:51:00,
2013-01-04 01:56:00,43.6,9.1,30.16,East,100,4.0,4.0,24,0.00,,,0.00,Wunderground v.1.15,2013-01-04 09:56:00,
2013-01-04 02:01:00,43.6,9.1,30.16,East,80,0.0,4.0,24,0.00,,,0.00,Wunderground v.1.15,2013-01-04 10:01:00,
2013-01-04 02:06:00,43.5,9.0,30.16,ESE,113,5.0,6.0,24,0.00,,,0.00,Wunderground v.1.15,2013-01-04 10:06:00,
2013-01-04 02:11:00,43.4,8.9,30.16,East,98,4.0,5.0,24,0.00,,,0.00,Wunderground v.1.15,2013-01-04 10:11:00,
2013-01-04 02:16:00,43.5,9.0,30.15,NNE,26,1.0,9.0,24,0.00,,,0.00,Wunderground v.1.15,2013-01-04 10:16:00,
2013-01-04 02:21:00,43.5,9.0,30.15,East,91,4.0,8.0,24,0.00,,,0.00,Wunderground v.1.15,2013-01-04 10:21:00,
2013-01-04 02:26:00,43.5,9.0,30.15,East,80,0.0,10.0,24,0.00,,,0.00,Wunderground v.1.15,2013-01-04 10:26:00,
2013-01-04 02:31:00,43.3,8.9,30.16,East,90,6.0,6.0,24,0.00,,,0.00,Wunderground v.1.15,2013-01-04 10:31:00,
2013-01-04 02:36:00,43.2,8.8,30.16,SE,128,3.0,7.0,24,0.00,,,0.00,Wunderground v.1.15,2013-01-04 10:36:00,
2013-01-04 02:41:00,43.1,8.7,30.16,ESE,118,5.0,9.0,24,0.00,,,0.00,Wunderground v.1.15,2013-01-04 10:41:00,
2013-01-04 02:46:00,43.0,8.6,30.16,SE,125,0.0,9.0,24,0.00,,,0.00,Wunderground v.1.15,2013-01-04 10:46:00,
2013-01-04 02:51:00,42.8,9.3,30.16,ENE,75,1.0,5.0,25,0.00,,,0.00,Wunderground v.1.15,2013-01-04 10:51:00,
2013-01-04 02:56:00,42.5,9.1,30.16,East,90,0.0,6.0,25,0.00,,,0.00,Wunderground v.1.15,2013-01-04 10:56:00,
2013-01-04 03:01:00,42.2,8.8,30.17,NE,53,2.0,6.0,25,0.00,,,0.00,Wunderground v.1.15,2013-01-04 11:01:00,
2013-01-04 03:06:00,42.0,8.7,30.17,East,101,0.0,6.0,25,0.00,,,0.00,Wunderground v.1.15,2013-01-04 11:06:00,
2013-01-04 03:11:00,42.0,8.7,30.17,East,96,0.0,6.0,25,0.00,,,0.00,Wunderground v.1.15,2013-01-04 11:11:00,
2013-01-04 03:16:00,42.1,8.7,30.17,ENE,60,0.0,7.0,25,0.00,,,0.00,Wunderground v.1.15,2013-01-04 11:16:00,
2013-01-04 03:21:00,42.1,8.7,30.17,East,83,4.0,5.0,25,0.00,,,0.00,Wunderground v.1.15,2013-01-04 11:21:00,
2013-01-04 03:26:00,42.2,8.8,30.17,ESE,113,4.0,6.0,25,0.00,,,0.00,Wunderground v.1.15,2013-01-04 11:26:00,
2013-01-04 03:31:00,42.4,8.1,30.17,ESE,114,2.0,5.0,24,0.00,,,0.00,Wunderground v.1.15,2013-01-04 11:31:00,
2013-01-04 03:37:00,42.7,8.4,30.17,East,89,0.0,8.0,24,0.00,,,0.00,Wunderground v.1.15,2013-01-04 11:37:00,
2013-01-04 03:42:00,42.8,8.4,30.16,East,80,6.0,7.0,24,0.00,,,0.00,Wunderground v.1.15,2013-01-04 11:42:00,
2013-01-04 03:47:00,42.8,8.4,30.16,SE,132,2.0,7.0,24,0.00,,,0.00,Wunderground v.1.15,2013-01-04 11:47:00,
2013-01-04 03:52:00,42.8,8.4,30.16,East,94,0.0,7.0,24,0.00,,,0.00,Wunderground v.1.15,2013-01-04 11:52:00,
2013-01-04 03:57:00,42.6,8.3,30.16,ESE,117,1.0,7.0,24,0.00,,,0.00,Wunderground v.1.15,2013-01-04 11:57:00,
2013-01-04 04:02:00,42.5,8.2,30.17,East,96,3.0,7.0,24,0.00,,,0.00,Wunderground v.1.15,2013-01-04 12:02:00,
2013-01-04 04:07:00,42.5,8.2,30.17,East,90,1.0,7.0,24,0.00,,,0.00,Wunderground v.1.15,2013-01-04 12:07:00,
2013-01-04 04:12:00,42.5,8.2,30.17,ENE,62,4.0,9.0,24,0.00,,,0.00,Wunderground v.1.15,2013-01-04 12:12:00,
2013-01-04 04:17:00,42.6,8.3,30.17,East,95,5.0,9.0,24,0.00,,,0.00,Wunderground v.1.15,2013-01-04 12:17:00,
2013-01-04 04:22:00,42.8,7.5,30.17,ESE,113,4.0,7.0,23,0.00,,,0.00,Wunderground v.1.15,2013-01-04 12:22:00,
2013-01-04 04:27:00,43.0,7.7,30.17,ENE,71,0.0,9.0,23,0.00,,,0.00,Wunderground v.1.15,2013-01-04 12:27:00,
2013-01-04 04:32:00,43.0,7.7,30.17,ENE,74,5.0,6.0,23,0.00,,,0.00,Wunderground v.1.15,2013-01-04 12:32:00,
2013-01-04 04:37:00,43.0,7.7,30.17,NE,55,0.0,7.0,23,0.00,,,0.00,Wunderground v.1.15,2013-01-04 12:37:00,
2013-01-04 04:42:00,43.0,7.7,30.17,ESE,117,0.0,6.0,23,0.00,,,0.00,Wunderground v.1.15,2013-01-04 12:42:00,
2013-01-04 04:47:00,42.9,7.6,30.17,NE,53,3.0,11.0,23,0.00,,,0.00,Wunderground v.1.15,2013-01-04 12:47:00,
2013-01-04 04:52:00,42.9,8.5,30.17,East,92,0.0,6.0,24,0.00,,,0.00,Wunderground v.1.15,2013-01-04 12:52:00,
2013-01-04 04:57:00,42.7,7.4,30.17,SE,125,6.0,9.0,23,0.00,,,0.00,Wunderground v.1.15,2013-01-04 12:57:00,
2013-01-04 05:02:00,42.6,8.3,30.18,SE,137,4.0,4.0,24,0.00,,,0.00,Wunderground v.1.15,2013-01-04 13:02:00,
2013-01-04 05:07:00,42.4,8.1,30.18,SE,125,0.0,4.0,24,0.00,,,0.00,Wunderground v.1.15,2013-01-04 13:07:00,
2013-01-04 05:12:00,42.3,8.0,30.18,East,95,1.0,6.0,24,0.00,,,0.00,Wunderground v.1.15,2013-01-04 13:12:00,
2013-01-04 05:17:00,42.4,8.1,30.18,ENE,68,4.0,8.0,24,0.00,,,0.00,Wunderground v.1.15,2013-01-04 13:17:00,
2013-01-04 05:23:00,42.7,8.4,30.18,ESE,112,0.0,6.0,24,0.00,,,0.00,Wunderground v.1.15,2013-01-04 13:23:00,
2013-01-04 05:28:00,42.9,8.5,30.18,East,88,0.0,6.0,24,0.00,,,0.00,Wunderground v.1.15,2013-01-04 13:28:00,
2013-01-04 05:33:00,42.8,8.4,30.18,ESE,107,1.0,7.0,24,0.00,,,0.00,Wunderground v.1.15,2013-01-04 13:33:00,
2013-01-04 05:38:00,42.6,8.3,30.18,East,88,0.0,9.0,24,0.00,,,0.00,Wunderground v.1.15,2013-01-04 13:38:00,
2013-01-04 05:43:00,42.4,8.1,30.18,East,82,0.0,7.0,24,0.00,,,0.00,Wunderground v.1.15,2013-01-04 13:43:00,
2013-01-04 05:48:00,42.1,7.8,30.18,ENE,57,6.0,10.0,24,0.00,,,0.00,Wunderground v.1.15,2013-01-04 13:48:00,
2013-01-04 05:53:00,42.1,7.8,30.18,ESE,107,4.0,6.0,24,0.00,,,0.00,Wunderground v.1.15,2013-01-04 13:53:00,
2013-01-04 05:58:00,42.1,7.8,30.18,East,90,7.0,10.0,24,0.00,,,0.00,Wunderground v.1.15,2013-01-04 13:58:00,
2013-01-04 06:03:00,42.2,7.9,30.19,East,80,4.0,8.0,24,0.00,,,0.00,Wunderground v.1.15,2013-01-04 14:03:00,
2013-01-04 06:08:00,42.0,7.8,30.19,ENE,77,5.0,9.0,24,0.00,,,0.00,Wunderground v.1.15,2013-01-04 14:08:00,
2013-01-04 06:13:00,41.9,7.7,30.19,East,92,0.0,5.0,24,0.00,,,0.00,Wunderground v.1.15,2013-01-04 14:13:00,
2013-01-04 06:18:00,41.9,7.7,30.19,ESE,114,2.0,10.0,24,0.00,,,0.00,Wunderground v.1.15,2013-01-04 14:18:00,
2013-01-04 06:23:00,41.8,8.5,30.19,NE,47,6.0,7.0,25,0.00,,,0.00,Wunderground v.1.15,2013-01-04 14:23:00,
2013-01-04 06:28:00,41.8,7.6,30.20,East,86,4.0,11.0,24,0.00,,,0.00,Wunderground v.1.15,2013-01-04 14:28:00,
2013-01-04 06:33:00,41.7,7.5,30.20,ESE,121,5.0,14.0,24,0.00,,,0.00,Wunderground v.1.15,2013-01-04 14:33:00,
2013-01-04 06:38:00,41.7,7.5,30.20,ESE,118,1.0,14.0,24,0.00,,,0.00,Wunderground v.1.15,2013-01-04 14:38:00,
2013-01-04 06:43:00,41.6,7.4,30.20,East,89,0.0,7.0,24,0.00,,,0.00,Wunderground v.1.15,2013-01-04 14:43:00,
2013-01-04 06:48:00,41.6,8.3,30.20,East,101,4.0,10.0,25,0.00,,,0.00,Wunderground v.1.15,2013-01-04 14:48:00,
2013-01-04 06:53:00,41.5,8.2,30.20,East,101,3.0,11.0,25,0.00,,,0.00,Wunderground v.1.15,2013-01-04 14:53:00,
2013-01-04 06:58:00,41.6,7.4,30.20,ESE,105,0.0,11.0,24,0.00,,,0.00,Wunderground v.1.15,2013-01-04 14:58:00,
2013-01-04 07:03:00,41.5,8.2,30.21,ESE,109,3.0,10.0,25,0.00,,,0.00,Wunderground v.1.15,2013-01-04 15:03:00,
2013-01-04 07:08:00,41.5,8.2,30.21,East,101,0.0,10.0,25,0.00,,,0.00,Wunderground v.1.15,2013-01-04 15:08:00,
2013-01-04 07:13:00,41.5,8.2,30.21,ENE,65,2.0,9.0,25,0.00,,,0.00,Wunderground v.1.15,2013-01-04 15:13:00,
2013-01-04 07:18:00,41.4,8.1,30.21,East,99,2.0,9.0,25,0.00,,,0.00,Wunderground v.1.15,2013-01-04 15:18:00,
2013-01-04 07:23:00,41.5,8.2,30.21,East,92,4.0,9.0,25,0.00,,,0.00,Wunderground v.1.15,2013-01-04 15:23:00,
2013-01-04 07:28:00,42.0,7.8,30.22,East,98,7.0,10.0,24,0.00,,,0.00,Wunderground v.1.15,2013-01-04 15:28:00,
2013-01-04 07:33:00,42.6,8.3,30.22,ESE,109,1.0,5.0,24,0.00,,,0.00,Wunderground v.1.15,2013-01-04 15:33:00,
2013-01-04 07:38:00,43.1,8.7,30.22,ESE,108,1.0,6.0,24,0.00,,,0.00,Wunderground v.1.15,2013-01-04 15:38:00,
2013-01-04 07:43:00,43.6,8.2,30.22,ENE,67,5.0,10.0,23,0.00,,,0.00,Wunderground v.1.15,2013-01-04 15:43:00,
2013-01-04 07:49:00,43.9,9.4,30.22,ENE,61,13.0,13.0,24,0.00,,,0.00,Wunderground v.1.15,2013-01-04 15:49:00,
2013-01-04 07:54:00,44.3,8.8,30.22,East,91,0.0,9.0,23,0.00,,,0.00,Wunderground v.1.15,2013-01-04 15:54:00,
2013-01-04 07:59:00,44.6,9.0,30.22,ENE,63,2.0,9.0,23,0.00,,,0.00,Wunderground v.1.15,2013-01-04 15:59:00,
2013-01-04 08:04:00,45.0,9.4,30.23,East,79,1.0,6.0,23,0.00,,,0.00,Wunderground v.1.15,2013-01-04 16:04:00,
2013-01-04 08:09:00,45.3,10.6,30.23,ESE,106,4.0,6.0,24,0.00,,,0.00,Wunderground v.1.15,2013-01-04 16:09:00,
2013-01-04 08:14:00,45.8,10.0,30.23,ESE,107,0.0,7.0,23,0.00,,,0.00,Wunderground v.1.15,2013-01-04 16:14:00,
2013-01-04 08:19:00,46.3,10.5,30.23,East,98,0.0,7.0,23,0.00,,,0.00,Wunderground v.1.15,2013-01-04 16:19:00,
2013-01-04 08:24:00,46.7,10.8,30.23,ESE,121,2.0,6.0,23,0.00,,,0.00,Wunderground v.1.15,2013-01-04 16:24:00,
2013-01-04 08:29:00,47.2,11.2,30.24,East,98,2.0,7.0,23,0.00,,,0.00,Wunderground v.1.15,2013-01-04 16:29:00,
2013-01-04 08:34:00,47.7,11.6,30.23,East,92,2.0,5.0,23,0.00,,,0.00,Wunderground v.1.15,2013-01-04 16:34:00,
2013-01-04 08:39:00,48.1,11.0,30.23,SE,131,2.0,7.0,22,0.00,,,0.00,Wunderground v.1.15,2013-01-04 16:39:00,
2013-01-04 08:44:00,48.5,11.3,30.23,East,92,0.0,6.0,22,0.00,,,0.00,Wunderground v.1.15,2013-01-04 16:44:00,
2013-01-04 08:49:00,48.9,11.7,30.24,East,96,3.0,7.0,22,0.00,,,0.00,Wunderground v.1.15,2013-01-04 16:49:00,
2013-01-04 08:54:00,49.2,10.9,30.24,NNE,19,6.0,11.0,21,0.00,,,0.00,Wunderground v.1.15,2013-01-04 16:54:00,
2013-01-04 08:59:00,49.3,10.9,30.24,East,90,7.0,11.0,21,0.00,,,0.00,Wunderground v.1.15,2013-01-04 16:59:00,
2013-01-04 09:04:00,49.6,11.2,30.23,East,101,9.0,12.0,21,0.00,,,0.00,Wunderground v.1.15,2013-01-04 17:04:00,
2013-01-04 09:09:00,50.0,10.4,30.24,ESE,118,0.0,12.0,20,0.00,,,0.00,Wunderground v.1.15,2013-01-04 17:09:00,
2013-01-04 09:14:00,50.2,10.6,30.24,ESE,111,4.0,10.0,20,0.00,,,0.00,Wunderground v.1.15,2013-01-04 17:14:00,
2013-01-04 09:19:00,50.5,10.9,30.24,ESE,114,3.0,10.0,20,0.00,,,0.00,Wunderground v.1.15,2013-01-04 17:19:00,
2013-01-04 09:24:00,50.6,10.9,30.24,ESE,104,0.0,11.0,20,0.00,,,0.00,Wunderground v.1.15,2013-01-04 17:24:00,
2013-01-04 09:30:00,50.7,11.0,30.24,ESE,114,2.0,4.0,20,0.00,,,0.00,Wunderground v.1.15,2013-01-04 17:30:00,
2013-01-04 09:35:00,50.8,11.1,30.24,SE,129,3.0,14.0,20,0.00,,,0.00,Wunderground v.1.15,2013-01-04 17:35:00,
2013-01-04 09:40:00,50.9,11.2,30.25,East,79,1.0,4.0,20,0.00,,,0.00,Wunderground v.1.15,2013-01-04 17:40:00,
2013-01-04 09:45:00,50.9,11.2,30.25,East,97,1.0,16.0,20,0.00,,,0.00,Wunderground v.1.15,2013-01-04 17:45:00,
2013-01-04 09:50:00,51.2,11.4,30.25,East,81,3.0,4.0,20,0.00,,,0.00,Wunderground v.1.15,2013-01-04 17:50:00,
2013-01-04 09:55:00,51.4,10.4,30.25,NNE,22,1.0,10.0,19,0.00,,,0.00,Wunderground v.1.15,2013-01-04 17:55:00,
2013-01-04 10:00:00,51.6,10.6,30.24,ESE,114,1.0,4.0,19,0.00,,,0.00,Wunderground v.1.15,2013-01-04 18:00:00,
2013-01-04 10:05:00,52.0,10.9,30.24,East,79,2.0,9.0,19,0.00,,,0.00,Wunderground v.1.15,2013-01-04 18:05:00,
2013-01-04 10:10:00,52.3,13.5,30.24,East,90,0.0,3.0,21,0.00,,,0.00,Wunderground v.1.15,2013-01-04 18:10:00,
2013-01-04 10:15:00,52.3,11.2,30.24,East,98,0.0,12.0,19,0.00,,,0.00,Wunderground v.1.15,2013-01-04 18:15:00,
2013-01-04 10:20:00,52.3,11.2,30.25,ESE,105,8.0,8.0,19,0.00,,,0.00,Wunderground v.1.15,2013-01-04 18:20:00,
2013-01-04 10:25:00,52.4,12.4,30.24,ENE,67,4.0,10.0,20,0.00,,,0.00,Wunderground v.1.15,2013-01-04 18:25:00,
2013-01-04 10:30:00,52.4,11.3,30.24,ESE,105,5.0,9.0,19,0.00,,,0.00,Wunderground v.1.15,2013-01-04 18:30:00,
2013-01-04 10:35:00,52.5,11.4,30.24,East,92,0.0,10.0,19,0.00,,,0.00,Wunderground v.1.15,2013-01-04 18:35:00,
2013-01-04 10:40:00,52.8,11.6,30.24,SE,140,1.0,3.0,19,0.00,,,0.00,Wunderground v.1.15,2013-01-04 18:40:00,
2013-01-04 10:45:00,53.0,11.8,30.23,ESE,123,1.0,11.0,19,0.00,,,0.00,Wunderground v.1.15,2013-01-04 18:45:00,
2013-01-04 10:50:00,53.5,12.2,30.23,East,84,2.0,2.0,19,0.00,,,0.00,Wunderground v.1.15,2013-01-04 18:50:00,
2013-01-04 10:55:00,53.6,12.3,30.22,ENE,71,0.0,10.0,19,0.00,,,0.00,Wunderground v.1.15,2013-01-04 18:55:00,
2013-01-04 11:00:00,53.9,12.5,30.22,ESE,118,0.0,4.0,19,0.00,,,0.00,Wunderground v.1.15,2013-01-04 19:00:00,
2013-01-04 11:05:00,53.9,12.5,30.22,ESE,118,2.0,7.0,19,0.00,,,0.00,Wunderground v.1.15,2013-01-04 19:05:00,
2013-01-04 11:10:00,53.9,12.5,30.22,ESE,106,3.0,3.0,19,0.00,,,0.00,Wunderground v.1.15,2013-01-04 19:10:00,
2013-01-04 11:15:00,54.0,11.4,30.22,South,182,2.0,11.0,18,0.00,,,0.00,Wunderground v.1.15,2013-01-04 19:15:00,
2013-01-04 11:20:00,53.9,12.5,30.21,ESE,102,6.0,7.0,19,0.00,,,0.00,Wunderground v.1.15,2013-01-04 19:20:00,
2013-01-04 11:25:00,54.1,12.7,30.21,NE,56,5.0,9.0,19,0.00,,,0.00,Wunderground v.1.15,2013-01-04 19:25:00,
2013-01-04 11:30:00,54.3,11.6,30.21,ESE,115,4.0,5.0,18,0.00,,,0.00,Wunderground v.1.15,2013-01-04 19:30:00,
2013-01-04 11:35:00,54.8,13.3,30.20,ENE,68,1.0,7.0,19,0.00,,,0.00,Wunderground v.1.15,2013-01-04 19:35:00,
2013-01-04 11:40:00,54.8,12.0,30.20,ENE,78,1.0,3.0,18,0.00,,,0.00,Wunderground v.1.15,2013-01-04 19:40:00,
2013-01-04 11:45:00,54.6,11.9,30.20,ESE,108,3.0,10.0,18,0.00,,,0.00,Wunderground v.1.15,2013-01-04 19:45:00,
2013-01-04 11:50:00,54.6,11.9,30.20,East,91,7.0,11.0,18,0.00,,,0.00,Wunderground v.1.15,2013-01-04 19:50:00,
2013-01-04 11:55:00,54.5,11.8,30.19,ENE,75,1.0,11.0,18,0.00,,,0.00,Wunderground v.1.15,2013-01-04 19:55:00,
2013-01-04 12:00:00,54.3,11.6,30.19,ENE,75,1.0,5.0,18,0.00,,,0.00,Wunderground v.1.15,2013-01-04 20:00:00,
2013-01-04 12:05:00,54.4,11.7,30.19,ESE,106,7.0,10.0,18,0.00,,,0.00,Wunderground v.1.15,2013-01-04 20:05:00,
2013-01-04 12:10:00,54.5,11.8,30.18,ESE,117,4.0,5.0,18,0.00,,,0.00,Wunderground v.1.15,2013-01-04 20:10:00,
2013-01-04 12:15:00,54.8,12.0,30.18,ENE,77,4.0,9.0,18,0.00,,,0.00,Wunderground v.1.15,2013-01-04 20:15:00,
2013-01-04 12:20:00,54.7,12.0,30.17,East,98,4.0,5.0,18,0.00,,,0.00,Wunderground v.1.15,2013-01-04 20:20:00,
2013-01-04 12:25:00,54.5,11.8,30.17,East,81,5.0,13.0,18,0.00,,,0.00,Wunderground v.1.15,2013-01-04 20:25:00,
2013-01-04 12:30:00,54.9,12.1,30.17,ESE,123,2.0,10.0,18,0.00,,,0.00,Wunderground v.1.15,2013-01-04 20:30:00,
2013-01-04 12:36:00,54.8,12.0,30.17,East,94,2.0,10.0,18,0.00,,,0.00,Wunderground v.1.15,2013-01-04 20:36:00,
2013-01-04 12:41:00,54.9,12.1,30.16,East,96,5.0,8.0,18,0.00,,,0.00,Wunderground v.1.15,2013-01-04 20:41:00,
2013-01-04 12:46:00,55.0,12.2,30.17,SE,129,3.0,9.0,18,0.00,,,0.00,Wunderground v.1.15,2013-01-04 20:46:00,
2013-01-04 12:51:00,55.1,13.5,30.16,ENE,71,7.0,7.0,19,0.00,,,0.00,Wunderground v.1.15,2013-01-04 20:51:00,
2013-01-04 12:56:00,55.1,13.5,30.16,East,83,1.0,10.0,19,0.00,,,0.00,Wunderground v.1.15,2013-01-04 20:56:00,
2013-01-04 13:01:00,55.0,13.4,30.17,ESE,119,3.0,9.0,19,0.00,,,0.00,Wunderground v.1.15,2013-01-04 21:01:00,
2013-01-04 13:06:00,55.0,12.2,30.17,East,92,4.0,9.0,18,0.00,,,0.00,Wunderground v.1.15,2013-01-04 21:06:00,
2013-01-04 13:11:00,55.0,14.6,30.17,East,92,0.0,6.0,20,0.00,,,0.00,Wunderground v.1.15,2013-01-04 21:11:00,
2013-01-04 13:17:00,55.3,13.7,30.16,SSE,159,7.0,7.0,19,0.00,,,0.00,Wunderground v.1.15,2013-01-04 21:17:00,
2013-01-04 13:22:00,55.0,12.2,30.16,ESE,115,3.0,12.0,18,0.00,,,0.00,Wunderground v.1.15,2013-01-04 21:22:00,
2013-01-04 13:27:00,55.0,12.2,30.16,SSE,164,0.0,12.0,18,0.00,,,0.00,Wunderground v.1.15,2013-01-04 21:27:00,
2013-01-04 13:32:00,55.1,13.5,30.16,East,85,1.0,6.0,19,0.00,,,0.00,Wunderground v.1.15,2013-01-04 21:32:00,
2013-01-04 13:37:00,55.2,13.6,30.16,ESE,111,7.0,10.0,19,0.00,,,0.00,Wunderground v.1.15,2013-01-04 21:37:00,
2013-01-04 13:42:00,55.3,13.7,30.16,ESE,121,2.0,6.0,19,0.00,,,0.00,Wunderground v.1.15,2013-01-04 21:42:00,
2013-01-04 13:47:00,55.1,12.3,30.16,ENE,64,1.0,9.0,18,0.00,,,0.00,Wunderground v.1.15,2013-01-04 21:47:00,
2013-01-04 13:52:00,55.1,13.5,30.16,ESE,109,1.0,10.0,19,0.00,,,0.00,Wunderground v.1.15,2013-01-04 21:52:00,
2013-01-04 13:57:00,55.3,12.4,30.16,SE,132,2.0,10.0,18,0.00,,,0.00,Wunderground v.1.15,2013-01-04 21:57:00,
2013-01-04 14:02:00,55.3,13.7,30.16,ESE,109,0.0,7.0,19,0.00,,,0.00,Wunderground v.1.15,2013-01-04 22:02:00,
2013-01-04 14:07:00,55.3,13.7,30.16,SE,134,0.0,7.0,19,0.00,,,0.00,Wunderground v.1.15,2013-01-04 22:07:00,
2013-01-04 14:12:00,55.3,13.7,30.16,ESE,110,0.0,6.0,19,0.00,,,0.00,Wunderground v.1.15,2013-01-04 22:12:00,
2013-01-04 14:17:00,55.0,13.4,30.16,SE,138,3.0,12.0,19,0.00,,,0.00,Wunderground v.1.15,2013-01-04 22:17:00,
2013-01-04 14:22:00,54.8,13.3,30.16,ESE,112,7.0,9.0,19,0.00,,,0.00,Wunderground v.1.15,2013-01-04 22:22:00,
2013-01-04 14:27:00,54.8,13.3,30.16,ENE,76,2.0,12.0,19,0.00,,,0.00,Wunderground v.1.15,2013-01-04 22:27:00,
2013-01-04 14:32:00,54.8,13.3,30.16,SSE,157,6.0,11.0,19,0.00,,,0.00,Wunderground v.1.15,2013-01-04 22:32:00,
2013-01-04 14:37:00,54.7,13.2,30.16,ESE,109,5.0,11.0,19,0.00,,,0.00,Wunderground v.1.15,2013-01-04 22:37:00,
2013-01-04 14:42:00,54.7,13.2,30.16,ESE,119,1.0,9.0,19,0.00,,,0.00,Wunderground v.1.15,2013-01-04 22:42:00,
2013-01-04 14:47:00,54.4,12.9,30.16,SSE,147,4.0,11.0,19,0.00,,,0.00,Wunderground v.1.15,2013-01-04 22:47:00,
2013-01-04 14:52:00,54.5,14.2,30.16,SE,136,10.0,13.0,20,0.00,,,0.00,Wunderground v.1.15,2013-01-04 22:52:00,
2013-01-04 14:57:00,54.4,14.1,30.17,ESE,102,0.0,13.0,20,0.00,,,0.00,Wunderground v.1.15,2013-01-04 22:57:00,
2013-01-04 15:02:00,54.4,12.9,30.16,ESE,113,4.0,7.0,19,0.00,,,0.00,Wunderground v.1.15,2013-01-04 23:02:00,
2013-01-04 15:07:00,54.1,12.7,30.17,ESE,109,1.0,11.0,19,0.00,,,0.00,Wunderground v.1.15,2013-01-04 23:07:00,
2013-01-04 15:12:00,54.0,13.8,30.17,NNE,21,1.0,5.0,20,0.00,,,0.00,Wunderground v.1.15,2013-01-04 23:12:00,
2013-01-04 15:17:00,54.0,13.8,30.17,East,86,3.0,7.0,20,0.00,,,0.00,Wunderground v.1.15,2013-01-04 23:17:00,
2013-01-04 15:22:00,53.9,12.5,30.17,East,94,0.0,9.0,19,0.00,,,0.00,Wunderground v.1.15,2013-01-04 23:22:00,
2013-01-04 15:27:00,53.7,13.5,30.17,ESE,107,1.0,10.0,20,0.00,,,0.00,Wunderground v.1.15,2013-01-04 23:27:00,
2013-01-04 15:32:00,53.6,13.4,30.17,SE,131,1.0,9.0,20,0.00,,,0.00,Wunderground v.1.15,2013-01-04 23:32:00,
2013-01-04 15:37:00,53.5,13.4,30.17,ESE,109,0.0,9.0,20,0.00,,,0.00,Wunderground v.1.15,2013-01-04 23:37:00,
2013-01-04 15:42:00,53.4,13.3,30.17,ESE,103,1.0,5.0,20,0.00,,,0.00,Wunderground v.1.15,2013-01-04 23:42:00,
2013-01-04 15:47:00,53.4,13.3,30.17,East,92,6.0,7.0,20,0.00,,,0.00,Wunderground v.1.15,2013-01-04 23:47:00,
2013-01-04 15:52:00,53.2,13.1,30.17,SE,124,4.0,6.0,20,0.00,,,0.00,Wunderground v.1.15,2013-01-04 23:52:00,
2013-01-04 15:57:00,53.0,12.9,30.17,ESE,106,0.0,6.0,20,0.00,,,0.00,Wunderground v.1.15,2013-01-04 23:57:00,
2013-01-04 16:02:00,52.7,12.7,30.17,SE,131,5.0,6.0,20,0.00,,,0.00,Wunderground v.1.15,2013-01-05 00:02:00,
2013-01-04 16:07:00,52.4,13.5,30.17,ESE,121,4.0,6.0,21,0.00,,,0.00,Wunderground v.1.15,2013-01-05 00:07:00,
2013-01-04 16:12:00,52.1,13.3,30.17,SE,125,6.0,8.0,21,0.00,,,0.00,Wunderground v.1.15,2013-01-05 00:12:00,
2013-01-04 16:17:00,51.8,13.0,30.17,ENE,63,0.0,8.0,21,0.00,,,0.00,Wunderground v.1.15,2013-01-05 00:17:00,
2013-01-04 16:22:00,51.5,13.8,30.17,ENE,74,3.0,5.0,22,0.00,,,0.00,Wunderground v.1.15,2013-01-05 00:22:00,
2013-01-04 16:27:00,51.1,13.5,30.17,ESE,104,1.0,9.0,22,0.00,,,0.00,Wunderground v.1.15,2013-01-05 00:27:00,
2013-01-04 16:32:00,50.6,14.1,30.17,ESE,116,0.0,2.0,23,0.00,,,0.00,Wunderground v.1.15,2013-01-05 00:32:00,
2013-01-04 16:37:00,50.2,13.8,30.18,ESE,121,1.0,6.0,23,0.00,,,0.00,Wunderground v.1.15,2013-01-05 00:37:00,
2013-01-04 16:42:00,49.8,14.4,30.18,ESE,106,0.0,5.0,24,0.00,,,0.00,Wunderground v.1.15,2013-01-05 00:42:00,
2013-01-04 16:47:00,49.3,14.0,30.18,ESE,103,1.0,5.0,24,0.00,,,0.00,Wunderground v.1.15,2013-01-05 00:47:00,
2013-01-04 16:52:00,49.0,13.7,30.18,SE,126,0.0,4.0,24,0.00,,,0.00,Wunderground v.1.15,2013-01-05 00:52:00,
2013-01-04 16:57:00,48.7,14.4,30.18,ESE,107,0.0,4.0,25,0.00,,,0.00,Wunderground v.1.15,2013-01-05 00:57:00,
2013-01-04 17:02:00,48.2,14.9,30.18,ESE,110,0.0,4.0,26,0.00,,,0.00,Wunderground v.1.15,2013-01-05 01:02:00,
2013-01-04 17:07:00,47.7,14.4,30.18,ESE,114,0.0,5.0,26,0.00,,,0.00,Wunderground v.1.15,2013-01-05 01:07:00,
2013-01-04 17:12:00,47.3,15.0,30.19,ESE,115,1.0,4.0,27,0.00,,,0.00,Wunderground v.1.15,2013-01-05 01:12:00,
2013-01-04 17:17:00,46.9,14.6,30.19,ESE,107,0.0,4.0,27,0.00,,,0.00,Wunderground v.1.15,2013-01-05 01:17:00,
2013-01-04 17:22:00,46.8,14.5,30.19,ESE,114,0.0,5.0,27,0.00,,,0.00,Wunderground v.1.15,2013-01-05 01:22:00,
2013-01-04 17:27:00,46.7,14.4,30.19,ENE,64,1.0,5.0,27,0.00,,,0.00,Wunderground v.1.15,2013-01-05 01:27:00,
2013-01-04 17:32:00,46.5,14.3,30.19,SE,145,3.0,5.0,27,0.00,,,0.00,Wunderground v.1.15,2013-01-05 01:32:00,
2013-01-04 17:37:00,46.4,14.2,30.19,East,90,4.0,5.0,27,0.00,,,0.00,Wunderground v.1.15,2013-01-05 01:37:00,
2013-01-04 17:42:00,46.4,14.2,30.20,ENE,59,0.0,10.0,27,0.00,,,0.00,Wunderground v.1.15,2013-01-05 01:42:00,
2013-01-04 17:47:00,46.4,14.2,30.20,East,89,1.0,10.0,27,0.00,,,0.00,Wunderground v.1.15,2013-01-05 01:47:00,
2013-01-04 17:52:00,46.4,14.2,30.20,East,96,2.0,5.0,27,0.00,,,0.00,Wunderground v.1.15,2013-01-05 01:52:00,
2013-01-04 17:57:00,46.4,14.2,30.20,ENE,72,2.0,5.0,27,0.00,,,0.00,Wunderground v.1.15,2013-01-05 01:57:00,
2013-01-04 18:02:00,46.4,14.2,30.20,ENE,76,1.0,4.0,27,0.00,,,0.00,Wunderground v.1.15,2013-01-05 02:02:00,
2013-01-04 18:07:00,46.4,14.2,30.20,East,83,0.0,5.0,27,0.00,,,0.00,Wunderground v.1.15,2013-01-05 02:07:00,
2013-01-04 18:12:00,46.3,14.1,30.21,ESE,116,1.0,3.0,27,0.00,,,0.00,Wunderground v.1.15,2013-01-05 02:12:00,
2013-01-04 18:17:00,46.3,14.1,30.21,ESE,105,5.0,5.0,27,0.00,,,0.00,Wunderground v.1.15,2013-01-05 02:17:00,
2013-01-04 18:22:00,46.3,14.1,30.21,ENE,57,5.0,6.0,27,0.00,,,0.00,Wunderground v.1.15,2013-01-05 02:22:00,
2013-01-04 18:27:00,46.1,13.9,30.21,East,97,0.0,6.0,27,0.00,,,0.00,Wunderground v.1.15,2013-01-05 02:27:00,
2013-01-04 18:32:00,46.0,13.8,30.21,East,82,0.0,5.0,27,0.00,,,0.00,Wunderground v.1.15,2013-01-05 02:32:00,
2013-01-04 18:37:00,46.0,13.8,30.21,East,94,0.0,5.0,27,0.00,,,0.00,Wunderground v.1.15,2013-01-05 02:37:00,
2013-01-04 18:42:00,46.0,13.8,30.21,ESE,115,4.0,5.0,27,0.00,,,0.00,Wunderground v.1.15,2013-01-05 02:42:00,
2013-01-04 18:47:00,46.0,13.8,30.21,East,84,1.0,5.0,27,0.00,,,0.00,Wunderground v.1.15,2013-01-05 02:47:00,
2013-01-04 18:52:00,45.8,13.7,30.21,ESE,123,2.0,5.0,27,0.00,,,0.00,Wunderground v.1.15,2013-01-05 02:52:00,
2013-01-04 18:57:00,45.7,13.6,30.21,ESE,120,0.0,6.0,27,0.00,,,0.00,Wunderground v.1.15,2013-01-05 02:57:00,
2013-01-04 19:02:00,45.6,14.3,30.21,ESE,105,0.0,4.0,28,0.00,,,0.00,Wunderground v.1.15,2013-01-05 03:02:00,
2013-01-04 19:07:00,45.5,14.2,30.21,ESE,113,0.0,4.0,28,0.00,,,0.00,Wunderground v.1.15,2013-01-05 03:07:00,
2013-01-04 19:12:00,45.4,14.1,30.21,East,95,0.0,1.0,28,0.00,,,0.00,Wunderground v.1.15,2013-01-05 03:12:00,
2013-01-04 19:17:00,45.2,14.0,30.21,East,99,0.0,3.0,28,0.00,,,0.00,Wunderground v.1.15,2013-01-05 03:17:00,
2013-01-04 19:22:00,45.0,13.8,30.22,East,92,0.0,0.0,28,0.00,,,0.00,Wunderground v.1.15,2013-01-05 03:22:00,
2013-01-04 19:27:00,45.0,13.8,30.22,ESE,105,0.0,1.0,28,0.00,,,0.00,Wunderground v.1.15,2013-01-05 03:27:00,
2013-01-04 19:32:00,45.0,13.8,30.22,ESE,115,0.0,5.0,28,0.00,,,0.00,Wunderground v.1.15,2013-01-05 03:32:00,
2013-01-04 19:37:00,45.0,13.8,30.22,ESE,102,0.0,5.0,28,0.00,,,0.00,Wunderground v.1.15,2013-01-05 03:37:00,
2013-01-04 19:42:00,45.0,13.8,30.22,NE,48,1.0,2.0,28,0.00,,,0.00,Wunderground v.1.15,2013-01-05 03:42:00,
2013-01-04 19:47:00,45.1,13.9,30.22,East,84,0.0,6.0,28,0.00,,,0.00,Wunderground v.1.15,2013-01-05 03:47:00,
2013-01-04 19:52:00,45.1,13.9,30.22,ESE,123,0.0,6.0,28,0.00,,,0.00,Wunderground v.1.15,2013-01-05 03:52:00,
2013-01-04 19:57:00,45.0,13.8,30.22,East,89,0.0,6.0,28,0.00,,,0.00,Wunderground v.1.15,2013-01-05 03:57:00,
2013-01-04 20:02:00,45.0,13.8,30.21,ESE,105,0.0,1.0,28,0.00,,,0.00,Wunderground v.1.15,2013-01-05 04:02:00,
2013-01-04 20:07:00,44.7,13.5,30.21,ESE,122,0.0,4.0,28,0.00,,,0.00,Wunderground v.1.15,2013-01-05 04:07:00,
2013-01-04 20:12:00,44.6,14.3,30.21,East,95,0.0,5.0,29,0.00,,,0.00,Wunderground v.1.15,2013-01-05 04:12:00,
2013-01-04 20:17:00,44.4,14.1,30.22,ESE,105,0.0,5.0,29,0.00,,,0.00,Wunderground v.1.15,2013-01-05 04:17:00,
2013-01-04 20:22:00,44.1,13.8,30.21,East,82,4.0,4.0,29,0.00,,,0.00,Wunderground v.1.15,2013-01-05 04:22:00,
2013-01-04 20:27:00,44.3,14.0,30.21,East,95,0.0,4.0,29,0.00,,,0.00,Wunderground v.1.15,2013-01-05 04:27:00,
2013-01-04 20:32:00,44.5,14.2,30.21,ESE,102,1.0,4.0,29,0.00,,,0.00,Wunderground v.1.15,2013-01-05 04:32:00,
2013-01-04 20:37:00,44.6,14.3,30.21,East,93,0.0,6.0,29,0.00,,,0.00,Wunderground v.1.15,2013-01-05 04:37:00,
2013-01-04 20:42:00,44.6,14.3,30.21,ESE,111,1.0,5.0,29,0.00,,,0.00,Wunderground v.1.15,2013-01-05 04:42:00,
2013-01-04 20:47:00,44.5,14.2,30.21,ESE,111,0.0,5.0,29,0.00,,,0.00,Wunderground v.1.15,2013-01-05 04:47:00,
2013-01-04 20:52:00,44.5,14.2,30.21,ENE,72,6.0,6.0,29,0.00,,,0.00,Wunderground v.1.15,2013-01-05 04:52:00,
2013-01-04 20:57:00,44.6,14.3,30.22,East,98,0.0,6.0,29,0.00,,,0.00,Wunderground v.1.15,2013-01-05 04:57:00,
2013-01-04 21:00:00,44.5,14.2,30.22,ESE,111,0.0,1.0,29,0.00,,,0.00,Wunderground v.1.15,2013-01-05 05:00:00,
2013-01-04 21:01:00,44.5,14.2,30.22,ENE,74,0.0,1.0,29,0.00,,,0.00,Wunderground v.1.15,2013-01-05 05:01:00,
2013-01-04 21:02:00,44.5,14.2,30.21,East,86,0.0,1.0,29,0.00,,,0.00,Wunderground v.1.15,2013-01-05 05:02:00,
2013-01-04 21:07:00,44.4,14.1,30.21,East,98,0.0,5.0,29,0.00,,,0.00,Wunderground v.1.15,2013-01-05 05:07:00,
2013-01-04 21:12:00,44.3,14.0,30.22,East,96,2.0,7.0,29,0.00,,,0.00,Wunderground v.1.15,2013-01-05 05:12:00,
2013-01-04 21:17:00,44.4,14.1,30.22,ESE,112,0.0,7.0,29,0.00,,,0.00,Wunderground v.1.15,2013-01-05 05:17:00,
2013-01-04 21:22:00,44.3,14.0,30.22,NNE,29,0.0,2.0,29,0.00,,,0.00,Wunderground v.1.15,2013-01-05 05:22:00,
2013-01-04 21:27:00,44.2,13.9,30.22,East,94,0.0,7.0,29,0.00,,,0.00,Wunderground v.1.15,2013-01-05 05:27:00,
2013-01-04 21:32:00,44.1,13.8,30.22,East,83,2.0,6.0,29,0.00,,,0.00,Wunderground v.1.15,2013-01-05 05:32:00,
2013-01-04 21:37:00,44.0,13.7,30.22,East,88,0.0,6.0,29,0.00,,,0.00,Wunderground v.1.15,2013-01-05 05:37:00,
2013-01-04 21:42:00,44.0,13.7,30.22,ESE,102,2.0,5.0,29,0.00,,,0.00,Wunderground v.1.15,2013-01-05 05:42:00,
2013-01-04 21:47:00,44.0,13.7,30.22,ESE,103,0.0,6.0,29,0.00,,,0.00,Wunderground v.1.15,2013-01-05 05:47:00,
2013-01-04 21:52:00,43.8,13.6,30.22,East,96,3.0,4.0,29,0.00,,,0.00,Wunderground v.1.15,2013-01-05 05:52:00,
2013-01-04 21:57:00,43.8,13.6,30.22,East,96,0.0,5.0,29,0.00,,,0.00,Wunderground v.1.15,2013-01-05 05:57:00,
2013-01-04 22:02:00,43.8,13.6,30.22,ENE,78,0.0,4.0,29,0.00,,,0.00,Wunderground v.1.15,2013-01-05 06:02:00,
2013-01-04 22:07:00,43.7,13.5,30.22,ESE,113,1.0,5.0,29,0.00,,,0.00,Wunderground v.1.15,2013-01-05 06:07:00,
2013-01-04 22:12:00,43.7,13.5,30.22,ENE,69,0.0,4.0,29,0.00,,,0.00,Wunderground v.1.15,2013-01-05 06:12:00,
2013-01-04 22:17:00,43.6,14.2,30.22,East,87,0.0,4.0,30,0.00,,,0.00,Wunderground v.1.15,2013-01-05 06:17:00,
2013-01-04 22:22:00,43.6,14.2,30.22,ENE,67,1.0,8.0,30,0.00,,,0.00,Wunderground v.1.15,2013-01-05 06:22:00,
2013-01-04 22:27:00,43.6,14.2,30.22,East,90,0.0,8.0,30,0.00,,,0.00,Wunderground v.1.15,2013-01-05 06:27:00,
2013-01-04 22:32:00,43.7,14.2,30.22,East,94,0.0,1.0,30,0.00,,,0.00,Wunderground v.1.15,2013-01-05 06:32:00,
2013-01-04 22:37:00,43.7,14.2,30.22,ESE,105,0.0,6.0,30,0.00,,,0.00,Wunderground v.1.15,2013-01-05 06:37:00,
2013-01-04 22:42:00,43.6,14.2,30.22,ENE,74,0.0,1.0,30,0.00,,,0.00,Wunderground v.1.15,2013-01-05 06:42:00,
2013-01-04 22:47:00,43.4,14.0,30.23,East,88,0.0,1.0,30,0.00,,,0.00,Wunderground v.1.15,2013-01-05 06:47:00,
2013-01-04 22:52:00,43.2,13.8,30.23,East,95,0.0,0.0,30,0.00,,,0.00,Wunderground v.1.15,2013-01-05 06:52:00,
2013-01-04 22:57:00,43.1,13.7,30.23,ESE,103,0.0,3.0,30,0.00,,,0.00,Wunderground v.1.15,2013-01-05 06:57:00,
2013-01-04 23:02:00,43.0,13.6,30.23,East,91,0.0,0.0,30,0.00,,,0.00,Wunderground v.1.15,2013-01-05 07:02:00,
2013-01-04 23:07:00,42.9,13.5,30.22,East,85,0.0,1.0,30,0.00,,,0.00,Wunderground v.1.15,2013-01-05 07:07:00,
2013-01-04 23:12:00,42.6,13.3,30.22,East,88,0.0,2.0,30,0.00,,,0.00,Wunderground v.1.15,2013-01-05 07:12:00,
2013-01-04 23:17:00,42.6,13.3,30.22,ESE,108,0.0,2.0,30,0.00,,,0.00,Wunderground v.1.15,2013-01-05 07:17:00,
2013-01-04 23:22:00,42.7,13.4,30.22,ESE,102,0.0,0.0,30,0.00,,,0.00,Wunderground v.1.15,2013-01-05 07:22:00,
2013-01-04 23:27:00,42.5,13.2,30.22,ESE,103,0.0,0.0,30,0.00,,,0.00,Wunderground v.1.15,2013-01-05 07:27:00,
2013-01-04 23:32:00,42.3,13.0,30.22,ENE,76,0.0,0.0,30,0.00,,,0.00,Wunderground v.1.15,2013-01-05 07:32:00,
2013-01-04 23:38:00,42.2,12.9,30.22,East,92,0.0,0.0,30,0.00,,,0.00,Wunderground v.1.15,2013-01-05 07:38:00,
2013-01-04 23:43:00,42.4,12.3,30.22,ENE,66,3.0,4.0,29,0.00,,,0.00,Wunderground v.1.15,2013-01-05 07:43:00,
2013-01-04 23:48:00,42.9,12.8,30.22,East,82,0.0,5.0,29,0.00,,,0.00,Wunderground v.1.15,2013-01-05 07:48:00,
2013-01-04 23:53:00,43.1,12.9,30.22,East,87,0.0,3.0,29,0.00,,,0.00,Wunderground v.1.15,2013-01-05 07:53:00,
2013-01-04 23:58:00,43.2,13.0,30.22,East,80,3.0,3.0,29,0.00,,,0.00,Wunderground v.1.15,2013-01-05 07:58:00,